Regional Weather Roundup
Issued by NWS State College, PA

Home | Current Version | Previous Version | Text Only | Print | Product List | Glossary Off
Versions: 1 2 3 4 5 6 7 8 9 10 11 12 13 14 15 16 17 18 19 20 21 22 23 24 25 26 27 28 29 30 31 32 33 34 35 36 37 38 39 40 41 42 43 44 45 46 47 48 49 50

000
ASUS41 KCTP 310203
RWRCTP

REGIONAL WEATHER ROUNDUP
NATIONAL WEATHER SERVICE STATE COLLEGE PA
1000 PM EDT WED JUL 30 2014

Note: "fair" indicates few or no clouds below 12,000 feet with no
significant weather and/or obstructions to visibility.

* = STATION THAT DOES NOT REPORT PRECIPITATION /E.G. RAIN...SNOW...ETC/
    THUNDER OR FOG.

PAZ002>004-007>009-013>016-020>023-029>032-310300-
WESTERN PENNSYLVANIA

CITY           SKY/WX    TMP DP  RH WIND       PRES   REMARKS
ERIE           MOCLDY    64  59  83 S7        30.01R
MEADVILLE      CLOUDY    62  59  90 CALM      30.04R
FRANKLIN*      PTCLDY    59  55  88 S6        30.06S
NEW CASTLE     FAIR      64  57  78 CALM      30.06R
BEAVER COUNTY  NOT AVBL
BUTLER*        PTCLDY    63  55  77 S3        30.08R
PITTSBURGH INT PTCLDY    63  57  81 SW3       30.06R
PITTSBURGH     MOCLDY    61  55  81 CALM      30.06R
INDIANA*       CLOUDY    63  59  88 VRB3      30.12R
LATROBE        MOCLDY    61  61 100 SW6       30.08S
WASHINGTON CO* PTCLDY    57  55  94 CALM      30.08R
$$

PAZ004>006-010>012-017>019-024>028-033>037-041-042-045-046-049>053-310300-
CENTRAL PENNSYLVANIA

CITY           SKY/WX    TMP DP  RH WIND       PRES   REMARKS
BRADFORD       CLEAR     56  54  93 S5        30.07R
DUBOIS         MOCLDY    60  56  86 S6        30.06S
CLEARFIELD     FOG       58  57  97 N3        30.08R VSB 3/4
JOHNSTOWN      MOCLDY    57  54  89 SW6       30.10S
ALTOONA        LGT RAIN  63  61  93 SW3       30.10R
STATE COLLEGE  CLOUDY    58  57  96 CALM      30.08R
WILLIAMSPORT   CLOUDY    61  57  87 CALM      30.06R
SELINSGROVE    LGT RAIN  61  59  93 S3        30.09S FOG
FT INDIANTOWN  MOCLDY    66  56  69 NW13G20   30.07R
CAPITAL CITY   MOCLDY    69  55  60 NW7       30.07R
HARRISBURG     MOCLDY    72  55  55 N8        30.06R
YORK           PTCLDY    62  55  77 CALM      30.06R
$$

PAZ038>040-043-044-047-048-054-055-060>062-067>071-310300-
EASTERN PENNSYLVANIA

CITY           SKY/WX    TMP DP  RH WIND       PRES   REMARKS
SCRANTON       CLOUDY    68  53  58 SW3       30.06R
MOUNT POCONO   CLEAR     61  53  75 W3        30.09R
ALLENTOWN      CLEAR     66  54  65 SW3       30.06R
QUAKERTOWN*    CLEAR     63  57  82 CALM      30.07S
READING        CLEAR     70  54  56 SW3       30.05R
LANCASTER      CLEAR     67  54  63 S5        30.06R
COATESVILLE    CLEAR     66  55  68 W3        30.09R
POTTSTOWN      CLEAR     66  56  70 CALM      30.08R
BLUE BELL      CLEAR     63  59  88 CALM      30.06R
DOYLESTOWN     CLEAR     64  57  78 CALM      30.05S
WILLOW GROVE   NOT AVBL
NORTH PHILA    CLEAR     72  51  47 SW6       30.07R
PHILADELPHIA   CLEAR     73  54  51 SW7       30.06R
$$



USA.gov is the U.S. government's official web portal to all federal, state and local government web resources and services.